sat.trackr.live / text

‹ back to catalog

STARLINK-31384

NORAD 58983 · 2024-031U

PAYLOAD ACTIVE UNKNOWN

§ Identity

Operator
Country
US
Launch date
2024-02-15
Launch site
AFWTR
Launch vehicle
Mass (kg)
RCS (m²)

Purposes: comms

External: N2YO · Heavens-Above · Gunter

§ Orbital elements

Epoch: 2026-09-20T22:39:21.748608Z

Period
93.85 min
Inclination
53.1593°
Eccentricity
0.0001036
Mean motion
15.34389981 rev/d
Perigee alt
462.0 km
Apogee alt
463.4 km
Semi-major
6,840.9 km
B*
-2.6257e-5
RAAN
105.7734°
Arg perigee
110.8018°
Mean anomaly
249.3096°
Rev number
14,646

§ Raw data

STARLINK-313841 58983U 24031U   26263.94400172 -.00001263  00000+0 -26257-4 0  99982 58983  53.1593 105.7734 0001036 110.8018 249.3096 15.34389981146462

JSON: /api/v1/satellites/58983 · /tle

For live sub-satellite position, see the globe view (requires WebGL).

§ Visibility from observer

Set your observer location to see the next 7 days of passes ≥ 10°. The values pass through the URL so the page stays shareable.

No JS? Fill the form by hand. The geolocation button needs JavaScript.